Regional Weather Roundup
Issued by NWS

Home | Current Version | Previous Version | Text Only | Print | Product List | Glossary Off
Versions: 1 2 3 4 5 6 7 8 9 10 11 12 13 14 15 16 17 18 19 20 21 22 23 24 25 26 27 28 29 30 31 32 33 34 35 36 37 38 39 40 41 42 43 44 45 46 47 48 49 50

000
ASUS43 KOAX 291102
RWRNE

WEATHER ROUNDUP FOR NEBRASKA
NATIONAL WEATHER SERVICE OMAHA NE
500 AM CST THU JAN 29 2015

NOTES: SATELLITE DATA IS BEING USED TO AUGMENT CLOUD COVER ABOVE
       12000 FEET.
       "FAIR" INDICATES FEW OR NO CLOUDS BELOW 12,000 FEET WITH NO
       SIGNIFICANT WEATHER AND/OR OBSTRUCTIONS TO VISIBILITY.

  * THESE STATIONS DO NOT REPORT WEATHER SUCH AS RAIN...SNOW OR FOG.

NEZ001>004-019>022-054>056-291200-
NEBRASKA PANHANDLE

CITY           SKY/WX    TMP DP  RH WIND       PRES   REMARKS
SCOTTSBLUFF    PTCLDY    34  26  72 W14       30.40R WCI  25
ALLIANCE       CLEAR     26  24  92 N8        30.38R WCI  18
CHADRON        MOCLDY    26  23  88 CALM      30.43R
SIDNEY         PTCLDY    28  24  85 NW14      30.37R WCI  17
$$

NEZ057>060-069>072-079>082-291200-
SOUTHWEST NEBRASKA

CITY           SKY/WX    TMP DP  RH WIND       PRES   REMARKS
NORTH PLATTE   CLEAR     28  23  81 NW12      30.35R WCI  18
IMPERIAL       CLEAR     30  24  78 N15       30.36R WCI  19
LEXINGTON      MOCLDY    36  26  68 N22       30.31S WCI  25
MCCOOK         CLEAR     31  25  78 N8        30.34R WCI  23
$$

NEZ005>010-023>029-035>040-094-291200-
NORTH CENTRAL NEBRASKA

CITY           SKY/WX    TMP DP  RH WIND       PRES   REMARKS
VALENTINE      CLOUDY    34  25  69 NW17G25   30.35R WCI  23
AINSWORTH      CLOUDY    33  25  70 NW24G31   30.33R WCI  21
BROKEN BOW     CLOUDY    37  26  64 N22G28    30.29R WCI  26
ORD            CLOUDY    37  25  61 NW30G39   30.27R WCI  24
$$

NEZ041-046>049-061>064-073>077-083>087-291200-
SOUTH CENTRAL NEBRASKA

CITY           SKY/WX    TMP DP  RH WIND       PRES   REMARKS
GRAND ISLAND   CLOUDY    38  28  67 N25G35    30.26R WCI  27
AURORA         CLOUDY    37  29  72 N22G32    30.24R WCI  27
HASTINGS       CLOUDY    38  28  67 N22G31    30.25R WCI  27
KEARNEY *      CLOUDY    37  25  60 N21G32    30.28R WCI  27
YORK           CLOUDY    37  30  75 N16G31    30.23R WCI  28
$$

NEZ011>018-030>034-042>045-291200-
NORTHEAST NEBRASKA

CITY           SKY/WX    TMP DP  RH WIND       PRES   REMARKS
NORFOLK        CLOUDY    36  29  75 NW30G39   30.21R WCI  23
ALBION         CLOUDY    37  28  70 N22G44    30.23R WCI  26
BLAIR          CLOUDY    37  29  75 NW24G38   30.15R WCI  25
COLUMBUS *     CLOUDY    36  25  64 NW24G32   30.23R WCI  24
FREMONT        CLOUDY    37  29  72 NW28G36   30.20R WCI  25
TEKAMAH        CLOUDY    37  29  72 NW23G32   30.18R WCI  26
$$

NEZ050>053-065>068-078-088>093-291200-
SOUTHEAST NEBRASKA

CITY           SKY/WX    TMP DP  RH WIND       PRES   REMARKS
LINCOLN        CLOUDY    39  29  67 NW21G33   30.21R WCI  29
OMAHA EPPLEY   CLOUDY    36  29  75 NW25G35   30.15R WCI  24
BEATRICE       CLOUDY    37  29  74 NW18G24   30.21R WCI  27
FALLS CITY     CLOUDY    37  28  70 NW21G35   30.16R WCI  26
NEBRASKA CITY  CLOUDY    36  26  68 N24G36    30.16R WCI  24
$$

NEZ044-045-051>053-067-291200-
OMAHA AREA

CITY           SKY/WX    TMP DP  RH WIND       PRES   REMARKS
OMAHA EPPLEY   CLOUDY    36  29  75 NW25G35   30.15R WCI  24
BLAIR          CLOUDY    37  29  75 NW24G38   30.15R WCI  25
FREMONT        CLOUDY    37  29  72 NW28G36   30.20R WCI  25
OFFUTT AFB     CLOUDY    37  29  72 NW15G30   30.16R WCI  28
WAHOO          CLOUDY    37  29  72 N20       30.19R WCI  27
$$



USA.gov is the U.S. government's official web portal to all federal, state and local government web resources and services.